Miscellaneous Local Product
Issued by NWS North Platte, NE

Home | Current Version | Previous Version | Text Only | Print | Product List | Glossary On
Versions: 1 2 3 4 5 6 7 8 9 10 11 12 13 14 15 16 17 18 19 20 21 22 23 24 25 26 27 28 29 30 31 32 33 34 35 36 37 38 39 40 41 42 43 44 45 46 47 48 49 50
000
AXUS43 KLBF 271210
MISLBF


WESTERN AND NORTH CENTRAL NEBRASKA HOURLY WEATHER ROUNDUP
NATIONAL WEATHER SERVICE NORTH PLATTE NE
700 AM CDT SAT AUG 27 2016

NOTE: "FAIR" INDICATES FEW OR NO CLOUDS BELOW 12,000 FEET WITH NO
SIGNIFICANT WEATHER AND/OR OBSTRUCTIONS TO VISIBILITY.

NOTE: STATIONS NOT REPORTING VARIABLES SUCH AS SKY/WEATHER OR
PRESSURE ARE PROVIDED BY RAWS AND APRS NETWORKS AND ARE NOT UNDER
NATIONAL WEATHER SERVICE QUALITY CONTROL.

...OBSERVATIONS IN AND NEAR THE EASTERN PANHANDLE OF NEBRASKA...

CITY           SKY/WX    TMP DP  RH WIND       PRES   REMARKS
PINE RIDGE     CLEAR     49  49 100 SE5       30.03R
CHADRON        CLEAR     50  48  93 SE3       30.03R
ALLIANCE       FOG       55  54  96 S8        30.05S VSB 3/4
SIDNEY         FOG       50  50 100 SE6       30.08S VSB 1/2
CRESCENT LAKE    N/A     55  55 100 S6          N/A
$$

...OBSERVATIONS IN NORTHERN NEBRASKA AND FAR SOUTHERN SOUTH DAKOTA...

CITY           SKY/WX    TMP DP  RH WIND       PRES   REMARKS
WINNER         FAIR      59  56  89 S10       29.98F
VALENTINE      MOCLDY    56  54  93 S9        30.01F
THEDFORD       FOG       54  53  99 W3        30.05S VSB 1/4
AINSWORTH      CLOUDY    57  57 100 W12       30.04R FOG
O`NEILL        FOG       57  56  96 CALM      30.04R VSB 1/4
ORD            FOG       58  56  93 CALM      30.03R VSB 3/4
BROKEN BOW     FOG       58  58 100 CALM      30.05R VSB 3/4
VALENTINE NWR    N/A     54  54 100 W6          N/A
BUTTE            N/A     59  58  95 S3          N/A
HALSEY           N/A     55  55  99 CALM        N/A
EWING            N/A     62  61  98 CALM        N/A
$$

...OBSERVATIONS IN SOUTHWEST NEBRASKA AND FAR NORTHEAST COLORADO...

CITY           SKY/WX    TMP DP  RH WIND       PRES   REMARKS
WRAY           FOG      N/A N/A N/A CALM      30.07R VSB 1/2
HOLYOKE        CLOUDY    54  52  94 CALM      30.09R
IMPERIAL       CLOUDY    51  51 100 NE5       30.08S
OGALLALA       FOG       55  54  94 CALM      30.07S VSB 1/4
NORTH PLATTE   FOG       53  51  93 CALM      30.05S VSB 1/4
MCCOOK         MOCLDY    51  49  92 N7        30.07R
LEXINGTON        N/A     53  51  94 CALM      30.04S FOG
STAPLETON        N/A     48  47  98 CALM        N/A
GOTHENBURG       N/A     54  51  90 CALM        N/A
CALLAWAY         N/A     51  50  97 CALM        N/A
$$

...OBSERVATIONS IN CENTRAL LINCOLN COUNTY AREA...

CITY           SKY/WX    TMP DP  RH WIND       PRES   REMARKS
N.P. AIRPORT   FOG       53  51  93 CALM      30.05S VSB 1/4
N.P. DOWNTOWN    N/A     51  51 100 CALM        N/A
N.P. SOUTHEAST   N/A     50  49  97 CALM        N/A
N.P. HILLCREST   N/A     50  50  99 CALM        N/A
$$

...SOME OBSERVATIONS FROM AROUND THE REGION...

CITY           SKY/WX    TMP DP  RH WIND       PRES   REMARKS
DENVER         PTCLDY    50  46  86 SW8       30.12R
LARAMIE        CLEAR     44  34  67 SE7       30.21R
CHEYENNE       CLEAR     48  42  80 W9        30.15R
SCOTTSBLUFF    FOG       54  53  97 SE7       30.05S VSB 1/4
RAPID CITY     LGT RAIN  53  51  93 E6        30.00S
BISMARCK       CLEAR     48  48 100 CALM      29.93S
PIERRE         CLOUDY    56  54  93 SW7       29.96R
SIOUX FALLS    CLOUDY    61  61 100 E5        30.02S FOG
OMAHA          FOG       67  64  90 S7        30.01R VSB 1/2
GRAND ISLAND   FOG       56  55  97 W7        30.04R VSB 1/4
KANSAS CITY    CLOUDY    69  67  93 W16G22    30.06R
WICHITA        CLOUDY    72  68  87 NE6       30.04R
OKLAHOMA CITY  CLOUDY    70  69  97 S6        30.03R
DALLAS         PTCLDY    73  70  90 SE3       30.01R
AMARILLO       CLEAR     61  58  90 SW9       30.09S
DODGE CITY     CLEAR     60  58  92 SE7       30.06R
HAYS           PTCLDY    59  52  77 NE3       30.03R
GOODLAND       FOG       54  54 100 SE3       30.07R VSB 1/4
$$




USA.gov is the U.S. government's official web portal to all federal, state and local government web resources and services.